map of CXI home
CXI - Airport
Location
City:  Christmas Island, Line Islands, Kiribati
Near (Alt.):Kiritimati
Name:Cassidy International Airport
ICAO:PLCH
IATA:CXI

Details
Type:Airport (Aerodrome, Airfield)
Use:International (customs port of entry)
Latitude:159'10"N (1.986161)
Longitude:15720'59"W (-157.349777)
Datum:WGS 1984
Elevation:5 ft (2 m)
Variation:9.04E (WMM2015 magnetic declination)
0.00 annual change
Runways:1
Longest:6900 × 98 ft (2103 × 30 m), paved

Time
Time Zone:UTC+14
Local Time:

Weather
METAR:PLCH 180100Z 12007KT 9999 SCT019 SCT043 BKN100 27/25 Q1006
TAF:PLCH 172303Z 1800/1824 09007KT 9999 -SHRA FEW018 BKN040 PROB40
TEMPO 1800/1807 3000 TSRA BKN010 FEW017CB

Related Locations
Nearby:
Farthest:FZVE: 12398 mi / 19952 km
Lomela, KE, CD

Find:

   beyond  
but within

Other Information
Maps:
NOTAMs:
Links:
Sources:

  
  • flag of Kiribati
  

Sectional Chart

Flight Planning
at skyvector.com

Satellite Image

Google Maps Satellite view

 

Copyright © 2004-2018 Karl L. Swartz. All rights reserved.
The Great Circle Mapper name and logo are trademarks of the Great Circle Mapper.
All other trademarks mentioned herein belong to their respective owners.
Please see credits for attibutions and further copyright information.

  Follow gcmap on Facebook Follow gcmap on Twitter Follow gcmap on Google+ GCmap on LinkedIn

hCard Microformat

Geo Microformat